Voltar ao catálogo

STARLINK-37393

AtivoComunicaçõesSSO
NORAD 68776·PAYLOAD·🇺🇸 United States

Lançado Apr 19, 2026 de Vandenberg Space Force Base

Loading…

Próximas Passagens (próximas 24 horas)

TLE

AtualizadoSource: CelesTrak SupGP

Época: Sep 15, 2026, 03:08 UTC

1 68776C 26086L   26258.13104167 -.00020688  00000+0 -64221-3 0  2583
2 68776  97.2841 293.6383 0001152  90.8697 217.0329 15.33450357    10

Acompanhe STARLINK-37393 em tempo real com AllMySat

Download on the App Store